FLOCK 2P-5 (41616 NORAD) Tracking and Keplerian Element Data

This shows tracking and keplerian element data for the satellite.

Feedback or suggestion? Click here.




ElementValue
Catalog41616
NameFLOCK 2P-5
Epoch Orbit9152
Epoch Day45.42969507
Epoch Year2018
RAAN111.4504
Inclination97.4331
Eccentricity0.0009038
Argument of Perigee319.4243
Mean Anonmoly40.6319
Mean Motion15.23920169
Decay Rate4.16E-05
L11 41616U 16040T 18045.42969507 .00004160 00000-0 17500-3 0 9996
L22 41616 97.4331 111.4504 0009038 319.4243 40.6319 15.23920169 91527

Live tracking and technical data element details for FLOCK 2P-5 (NORAD 41616). FLOCK 2P-5 can be tracked NOW for your location showing map with azimuth and elevation plus other details from your city location.

Track the satellite on the map from your city or location and see movement details for azimuth, elevation, latitude, longitude, range, height, and movement on the map or in text.







IsCatalogInMostPopularTable: catalog: 41616, numindb: 126
Update: records affected: 1



GetName: 41616 FLOCK 2P-5

Hit Count: updated at: Fri, 16 Nov 2018 02:58:27 GMT